Location: ????????
(56.0167°N, 38.0333°E)
Time: 03:31:30
(UTC+00:00)

Cosmos 1842 - Pass Details

Date: 19 May 2025
Orbit: 440 x 450 km, 82.5° (Epoch: 14 June)

Event Time Altitude Azimuth Distance (km) Brightness Sun altitude
Exits shadow 20:29:56 22° 144° (SE) 1,053 4.2 -13.2°
Maximum altitude 20:31:36 35° 93° (E) 760 3.9 -13.2°
Drops below altitude 10° 20:34:49 10° 27° (NNE) 1,605 6.5 -13.3°
Sets 20:37:00 0° 18° (NNE) 2,484 7.8 -13.4°
